sat.trackr.live / text

‹ back to catalog

STARLINK-35057

NORAD 65525 · 2025-200F

PAYLOAD ACTIVE UNKNOWN

§ Identity

Operator
Country
US
Launch date
2025-09-06
Launch site
AFWTR
Launch vehicle
Mass (kg)
RCS (m²)

Purposes: comms

External: N2YO · Heavens-Above · Gunter

§ Orbital elements

Epoch: 2026-05-25T02:25:51.900096Z

Period
95.64 min
Inclination
97.4484°
Eccentricity
0.0001810
Mean motion
15.05655208 rev/d
Perigee alt
548.2 km
Apogee alt
550.7 km
Semi-major
6,927.6 km
B*
1.7003e-4
RAAN
214.6743°
Arg perigee
152.0049°
Mean anomaly
208.1276°
Rev number
4,062

§ Raw data

STARLINK-350571 65525U 25200F   26145.10129514  .00002396  00000+0  17003-3 0  99962 65525  97.4484 214.6743 0001810 152.0049 208.1276 15.05655208 40624

JSON: /api/v1/satellites/65525 · /tle

For live sub-satellite position, see the globe view (requires WebGL).

§ Visibility from observer

Set your observer location to see the next 7 days of passes ≥ 10°. The values pass through the URL so the page stays shareable.

No JS? Fill the form by hand. The geolocation button needs JavaScript.